Regional Weather Roundup
Issued by NWS Cleveland, OH

Home | Current Version | Previous Version | Graphics & Text | Print | Product List | Glossary On
Versions: 1 2 3 4 5 6 7 8 9 10 11 12 13 14 15 16 17 18 19 20 21 22 23 24 25 26 27 28 29 30 31 32 33 34 35 36 37 38 39 40 41 42 43 44 45 46 47 48 49 50
000
ASUS41 KCLE 240612
RWRCLE
OHIO REGIONAL WEATHER ROUNDUP
NATIONAL WEATHER SERVICE WILMINGTON, OH
200 AM EDT WED AUG 24 2016

NOTE: "FAIR" INDICATES FEW OR NO CLOUDS BELOW 12,000 FEET WITH NO
SIGNIFICANT WEATHER AND/OR OBSTRUCTIONS TO VISIBILITY.

OHZ001>008-015>018-024>027-034-035-043-044-240700-
   NORTHWEST OHIO

CITY           SKY/WX    TMP DP  RH WIND       PRES   REMARKS
DEFIANCE       FAIR      66  59  78 CALM      30.18S
FINDLAY        FAIR      64  57  78 SE5       30.19S
TOLEDO EXPRESS FAIR      62  61  96 S3        30.18S
TOLEDO EXEC    FAIR      65  60  84 S5        30.19S
LIMA           FAIR      64  60  87 S6        30.20F
$$

OHZ009>014-019>023-028>033-038-089-240700-
   NORTHEAST OHIO

CITY           SKY/WX    TMP DP  RH WIND       PRES   REMARKS
CLE-HOPKINS    FAIR      65  57  75 CALM      30.23F
CLE-LAKEFRONT  FAIR      70  59  68 SE8       30.20F
CUY CO. ARPT   NOT AVBL
LORAIN-ELYRIA  FAIR      61  57  87 CALM      30.22F
ASHTABULA      FAIR      60  60 100 CALM      30.24F
AKRON-CANTON   FAIR      66  56  70 SE3       30.24F
WOOSTER        FAIR      56  54  93 CALM      30.24F
MANSFIELD      FAIR      61  57  87 SE5       30.23F
YOUNGSTOWN     FAIR      57  55  93 E6        30.24F
$$

OHZ042-051>053-060>062-070>072-077>081-240700-
  SOUTHWEST OHIO

CITY           SKY/WX    TMP DP  RH WIND       PRES   REMARKS
CINC-COVINGTON CLOUDY    66  63  90 S5        30.20F
CINC-LUNKEN    FAIR      64  64 100 CALM      30.21S
HAMILTON       FAIR      64  61  90 CALM      30.21S
DAYTON         MOCLDY    68  59  73 SE8       30.21F
WRIGHT-PAT AFB MOCLDY    67  60  79 SE5       30.20F
DAYTON GENERAL FAIR      70  58  65 SE7       30.20S
WILMINGTON     FAIR      64  60  87 SE3       30.22S
$$

OHZ036-037-039>041-045>050-054>059-063>069-073>076-082>088-240700-
  CENTRAL AND SOUTHEAST OHIO

CITY           SKY/WX    TMP DP  RH WIND       PRES   REMARKS
COLUMBUS       MOCLDY    64  60  87 CALM      30.21S
OSU AIRPORT    FAIR      64  60  87 CALM      30.21F
BOLTON FIELD   FAIR      61  60  96 CALM      30.22F
RICKENBACK AFB FAIR      63  60  90 CALM      30.21S
NEWARK         FAIR      59  58  96 CALM      30.22F FOG
MARION         FAIR      63  58  83 S6        30.22S
LANCASTER      FAIR      59  58  96 CALM      30.22F
ZANESVILLE     FAIR      61  59  93 CALM      30.23F
NEW PHILLY     FAIR      61  57  87 CALM      30.24S
$$




USA.gov is the U.S. government's official web portal to all federal, state and local government web resources and services.